Weather History for Duluth, MN

Change the Weather History Date:

Tuesday, October 1, 2013

  Actual Average Record
Temperature  
Mean Temperature 60 °F 49 °F  
Max Temperature 72 °F 58 °F 80 °F (1963)
Min Temperature 47 °F 40 °F 20 °F (1961)
Degree Days  
Heating Degree Days 5 16  
Month to date heating degree days 5 16  
Since 1 July heating degree days 247 463  
Cooling Degree Days 0 0  
Month to date cooling degree days 0 0  
Year to date cooling degree days 375 204  
Growing Degree Days 11 (Base 50)    
Moisture  
Dew Point 41 °F    
Average Humidity 49    
Maximum Humidity 72    
Minimum Humidity 25    
Precipitation  
Precipitation 0.00 in 0.11 in 2.81 in (1950)
Month to date precipitation 0.00 0.11  
Year to date precipitation 22.85 24.92  
Snow  
Snow 0.00 in 0.00 in 2.30 in (1985)
Month to date snowfall 0.0 0.0  
Since 1 July snowfall 0.0 0.1  
Since 1 September snowfall 0.0 0.1  
Snow Depth 0.00 in    
Sea Level Pressure  
Sea Level Pressure 29.71 in    
Wind  
Wind Speed 14 mph (WSW)    
Max Wind Speed 29 mph    
Max Gust Speed 37 mph    
Visibility 10 miles    
Events      
T = Trace of Precipitation, MM = Missing Value Source: NWS Daily Summary

Daily Weather History Graph

Daily Weather History Graph

Search for Another Location

Airport:

Trip Planner

Search our weather history database for the weather conditions in past years. The results will help you decide how hot, cold, wet, or windy it might be!

Date:

Astronomy

Oct. 01, 2013 Rise Set
Actual Time 7:07 AM CDT 6:47 PM CDT
Civil Twilight 6:37 AM CDT 7:18 PM CDT
Nautical Twilight 6:02 AM CDT 7:53 PM CDT
Astronomical Twilight 5:26 AM CDT 8:29 PM CDT
Moon 3:31 AM CDT (10/1) 5:00 PM CDT (10/1)
Length of Visible Light 12h 40m
Length of Day
11h 40m
Waning Crescent, 12% of the Moon is Illuminated
Oct 1
Waning Crescent
Oct 4
New
Oct 11
First Quarter
Oct 18
Full
Oct 26
Last Quarter

Hourly Weather History & Observations

Time (CDT) Temp. Dew Point Humidity Pressure Visibility Wind Dir Wind Speed Gust Speed Precip Events Conditions
12:55 AM 64.0 °F 48.9 °F 58% 29.58 in 10.0 mi SSW 12.7 mph - N/A   Clear
1:55 AM 63.0 °F 48.9 °F 60% 29.57 in 10.0 mi SSW 10.4 mph - N/A   Clear
2:55 AM 61.0 °F 48.9 °F 64% 29.56 in 10.0 mi South 8.1 mph - N/A   Clear
3:55 AM 61.0 °F 48.9 °F 64% 29.55 in 10.0 mi South 9.2 mph - N/A   Clear
4:55 AM 62.1 °F 48.9 °F 62% 29.56 in 10.0 mi SW 9.2 mph - N/A   Partly Cloudy
5:55 AM 61.0 °F 50.0 °F 67% 29.57 in 10.0 mi SSW 6.9 mph - N/A   Mostly Cloudy
6:55 AM 59.0 °F 50.0 °F 72% 29.61 in 10.0 mi West 11.5 mph - N/A   Scattered Clouds
7:55 AM 60.1 °F 51.1 °F 72% 29.62 in 10.0 mi West 10.4 mph - N/A   Scattered Clouds
8:55 AM 64.0 °F 50.0 °F 60% 29.65 in 10.0 mi WNW 13.8 mph 20.7 mph N/A   Partly Cloudy
9:55 AM 64.9 °F 48.0 °F 54% 29.69 in 10.0 mi West 13.8 mph 23.0 mph N/A   Partly Cloudy
10:55 AM 68.0 °F 42.1 °F 39% 29.71 in 10.0 mi West 18.4 mph 24.2 mph N/A   Partly Cloudy
11:55 AM 70.0 °F 37.0 °F 30% 29.72 in 10.0 mi West 23.0 mph 29.9 mph N/A   Clear
12:55 PM 71.1 °F 35.1 °F 27% 29.72 in 10.0 mi West 20.7 mph 33.4 mph N/A   Clear
1:55 PM 71.1 °F 33.1 °F 25% 29.73 in 10.0 mi West 25.3 mph 34.5 mph N/A   Clear
2:55 PM 71.1 °F 35.1 °F 27% 29.75 in 10.0 mi West 24.2 mph 33.4 mph N/A   Clear
3:55 PM 71.1 °F 35.1 °F 27% 29.76 in 10.0 mi West 24.2 mph 31.1 mph N/A   Clear
4:55 PM 69.1 °F 33.1 °F 26% 29.77 in 10.0 mi West 19.6 mph 33.4 mph N/A   Clear
5:55 PM 66.9 °F 32.0 °F 27% 29.80 in 10.0 mi West 17.3 mph 29.9 mph N/A   Clear
6:55 PM 62.1 °F 34.0 °F 35% 29.82 in 10.0 mi WSW 10.4 mph - N/A   Clear
7:55 PM 59.0 °F 35.1 °F 41% 29.85 in 10.0 mi West 9.2 mph - N/A   Clear
8:55 PM 55.9 °F 35.1 °F 45% 29.87 in 10.0 mi West 9.2 mph - N/A   Clear
9:55 PM 52.0 °F 36.0 °F 54% 29.89 in 10.0 mi West 10.4 mph - N/A   Clear
10:55 PM 50.0 °F 36.0 °F 59% 29.91 in 10.0 mi West 10.4 mph - N/A   Clear
11:55 PM 48.9 °F 35.1 °F 59% 29.92 in 10.0 mi West 10.4 mph - N/A   Clear